TimeCST,TemperatureF,Dew PointF,Humidity,Sea Level PressureIn,VisibilityMPH,Wind Direction,Wind SpeedMPH,Gust SpeedMPH,PrecipitationIn,Events,Conditions,WindDirDegrees,DateUTC
12:53 AM,27.0,23.0,85,30.30,6.0,Calm,Calm,-,N/A,,Clear,0,2012-12-12 06:53:00
1:53 AM,25.0,21.9,88,30.31,7.0,Calm,Calm,-,N/A,,Clear,0,2012-12-12 07:53:00
2:53 AM,26.1,21.9,84,30.32,6.0,Calm,Calm,-,N/A,,Clear,0,2012-12-12 08:53:00
3:53 AM,25.0,21.9,88,30.33,6.0,Calm,Calm,-,N/A,,Clear,0,2012-12-12 09:53:00
4:53 AM,25.0,21.0,85,30.34,6.0,Calm,Calm,-,N/A,,Clear,0,2012-12-12 10:53:00
5:53 AM,24.1,19.9,84,30.36,6.0,Calm,Calm,-,N/A,,Clear,0,2012-12-12 11:53:00
6:53 AM,24.1,19.9,84,30.38,6.0,Calm,Calm,-,N/A,,Clear,0,2012-12-12 12:53:00
7:53 AM,28.0,23.0,81,30.38,7.0,Calm,Calm,-,N/A,,Clear,0,2012-12-12 13:53:00
8:53 AM,32.0,28.0,85,30.40,9.0,Variable,3.5,-,N/A,,Clear,0,2012-12-12 14:53:00
9:53 AM,37.9,30.0,73,30.40,10.0,ENE,5.8,-,N/A,,Clear,60,2012-12-12 15:53:00
10:53 AM,43.0,28.0,56,30.39,10.0,ENE,9.2,-,N/A,,Clear,70,2012-12-12 16:53:00
11:53 AM,44.1,24.1,45,30.37,10.0,ENE,10.4,-,N/A,,Clear,60,2012-12-12 17:53:00
12:53 PM,46.9,24.1,41,30.34,10.0,East,8.1,-,N/A,,Clear,80,2012-12-12 18:53:00
1:53 PM,46.9,24.1,41,30.33,10.0,ENE,6.9,-,N/A,,Clear,60,2012-12-12 19:53:00
2:53 PM,48.0,21.9,36,30.35,10.0,ENE,3.5,-,N/A,,Clear,60,2012-12-12 20:53:00
3:53 PM,45.0,24.1,44,30.35,10.0,Calm,Calm,-,N/A,,Clear,0,2012-12-12 21:53:00
4:53 PM,43.0,23.0,45,30.35,10.0,Calm,Calm,-,N/A,,Clear,0,2012-12-12 22:53:00
5:53 PM,36.0,24.1,62,30.36,10.0,Calm,Calm,-,N/A,,Clear,0,2012-12-12 23:53:00
6:53 PM,34.0,25.0,70,30.36,10.0,Calm,Calm,-,N/A,,Clear,0,2012-12-13 00:53:00
7:53 PM,34.0,23.0,64,30.37,10.0,NE,3.5,-,N/A,,Clear,50,2012-12-13 01:53:00
8:53 PM,34.0,24.1,67,30.37,10.0,Calm,Calm,-,N/A,,Clear,0,2012-12-13 02:53:00
9:53 PM,32.0,24.1,73,30.38,10.0,Calm,Calm,-,N/A,,Clear,0,2012-12-13 03:53:00
10:53 PM,28.0,21.0,75,30.37,10.0,Calm,Calm,-,N/A,,Clear,0,2012-12-13 04:53:00
11:53 PM,27.0,21.9,81,30.38,10.0,Calm,Calm,-,N/A,,Clear,0,2012-12-13 05:53:00